Tracking 20242 objects as of 24-Jan-2020
HD Live streaming from Space Station
objects crossing your sky now

SL-12 R/B(2)

Track SL-12 R/B(2) now!


NORAD ID: 16870
Int'l Code: 1986-007F
Perigee: 36,370.7 km
Apogee: 36,632.1 km
Inclination: 14.6 °
Period: 1,472.4 minutes
Semi major axis: 42872 km
RCS: 2.3779 m2 (large)
Launch date: January 17, 1986
Source: Commonwealth of Independent States (former USSR) (CIS)
Launch site: TYURATAM MISSILE AND SPACE COMPLEX (TTMTR)

Note: This is a ROCKET BODY
aabbcc
Your satellite tracking list
Your tracking list is empty




NASA's NSSDC Master Catalog

Two Line Element Set (TLE):
1 16870U 86007F   20023.61850588 -.00000172  00000-0  00000+0 0  9991
2 16870  14.5869 340.8479 0030491 110.2091 257.2408  0.97799343119777
Source of the keplerian elements: AFSPC